• In Germany
  • List of Countries
  • For 7 days
  • Water Temperature
  • Satellite Maps
  • Weather Map
  • Weather Widgets
  • user-avatar
    Login

    Hourly Weather Zawiercie

    Today, 24 September, Monday

    Time Temperature Precipitation Wind Pressure Humidity
    00:00 +14°C° 0.7 mm 10 mps 721 mmHg 76%
    01:00 +15°C° 0 mm 9 mps 721 mmHg 80%
    02:00 +11°C° 0.6 mm 9 mps 723 mmHg 80%
    03:00 +8°C° 0.6 mm 10 mps 724 mmHg 80%
    04:00 +6°C° 0.6 mm 10 mps 726 mmHg 80%
    05:00 +6°C° 0.1 mm 10 mps 727 mmHg 79%
    06:00 +6°C° 0.1 mm 9 mps 728 mmHg 79%
    07:00 +6°C° 0 mm 8 mps 730 mmHg 78%
    08:00 +6°C° 0.1 mm 8 mps 731 mmHg 75%
    09:00 +6°C° 0.1 mm 9 mps 731 mmHg 72%
    10:00 +7°C° 0.1 mm 9 mps 732 mmHg 69%
    11:00 +7°C° 0.1 mm 9 mps 733 mmHg 66%
    12:00 +7°C° 0.1 mm 9 mps 733 mmHg 62%
    13:00 +8°C° 0.1 mm 9 mps 734 mmHg 59%
    14:00 +8°C° 0.1 mm 9 mps 734 mmHg 58%
    15:00 +8°C° 0.1 mm 9 mps 734 mmHg 57%
    16:00 +8°C° 0.1 mm 9 mps 734 mmHg 56%
    17:00 +7°C° 0.1 mm 8 mps 734 mmHg 60%
    18:00 +6°C° 0.1 mm 7 mps 735 mmHg 64%
    19:00 +5°C° 0.1 mm 6 mps 735 mmHg 68%
    20:00 +6°C° 0 mm 5 mps 735 mmHg 68%
    21:00 +6°C° 0 mm 5 mps 736 mmHg 69%
    22:00 +6°C° 0 mm 5 mps 737 mmHg 69%
    23:00 +5°C° 0 mm 5 mps 737 mmHg 70%

    Tomorrow, 25 September, Tuesday

    Time Temperature Precipitation Wind Pressure Humidity
    00:00 +5°C° 0 mm 5 mps 737 mmHg 71%
    01:00 +5°C° 0 mm 5 mps 738 mmHg 72%
    02:00 +3°C° 0 mm 5 mps 738 mmHg 74%
    03:00 +3°C° 0 mm 5 mps 738 mmHg 76%
    04:00 +3°C° 0 mm 5 mps 739 mmHg 78%
    05:00 +3°C° 0 mm 5 mps 739 mmHg 77%
    06:00 +3°C° 0 mm 5 mps 740 mmHg 76%
    07:00 +3°C° 0 mm 6 mps 741 mmHg 76%
    08:00 +5°C° 0 mm 6 mps 741 mmHg 69%
    09:00 +7°C° 0 mm 6 mps 742 mmHg 63%
    10:00 +9°C° 0 mm 6 mps 742 mmHg 57%
    11:00 +9°C° 0.1 mm 6 mps 743 mmHg 53%
    12:00 +10°C° 0.1 mm 6 mps 743 mmHg 49%
    13:00 +11°C° 0.1 mm 6 mps 743 mmHg 46%
    14:00 +10°C° 0 mm 6 mps 743 mmHg 45%
    15:00 +10°C° 0 mm 6 mps 743 mmHg 44%
    16:00 +10°C° 0 mm 6 mps 744 mmHg 43%
    17:00 +9°C° 0 mm 5 mps 744 mmHg 47%
    18:00 +8°C° 0 mm 4 mps 744 mmHg 51%
    19:00 +7°C° 0 mm 3 mps 745 mmHg 56%
    20:00 +7°C° 0 mm 3 mps 745 mmHg 58%
    21:00 +6°C° 0 mm 2 mps 746 mmHg 60%
    22:00 +6°C° 0 mm 2 mps 746 mmHg 62%
    23:00 +5°C° 0 mm 2 mps 746 mmHg 63%

    Day after tomorrow, 26 September, Wednesday

    Time Temperature Precipitation Wind Pressure Humidity
    00:00 +5°C° 0 mm 2 mps 746 mmHg 64%
    01:00 +6°C° 0 mm 1 mps 746 mmHg 66%
    02:00 +5°C° 0 mm 1 mps 746 mmHg 67%
    03:00 +4°C° 0 mm 2 mps 746 mmHg 67%
    04:00 +4°C° 0 mm 2 mps 746 mmHg 68%
    05:00 +4°C° 0 mm 2 mps 746 mmHg 67%
    06:00 +5°C° 0 mm 2 mps 746 mmHg 65%
    07:00 +5°C° 0 mm 2 mps 747 mmHg 63%
    08:00 +7°C° 0 mm 3 mps 746 mmHg 56%
    09:00 +9°C° 0 mm 3 mps 746 mmHg 49%
    10:00 +11°C° 0 mm 3 mps 746 mmHg 42%
    11:00 +12°C° 0 mm 4 mps 746 mmHg 40%
    12:00 +13°C° 0 mm 4 mps 745 mmHg 37%
    13:00 +14°C° 0 mm 4 mps 745 mmHg 35%
    14:00 +14°C° 0 mm 4 mps 744 mmHg 37%
    15:00 +13°C° 0 mm 4 mps 743 mmHg 39%
    16:00 +13°C° 0 mm 4 mps 743 mmHg 41%
    17:00 +12°C° 0 mm 4 mps 743 mmHg 44%
    18:00 +11°C° 0 mm 3 mps 743 mmHg 47%
    19:00 +11°C° 0 mm 3 mps 743 mmHg 50%
    20:00 +10°C° 0 mm 4 mps 743 mmHg 50%
    21:00 +10°C° 0 mm 4 mps 742 mmHg 50%
    22:00 +9°C° 0 mm 5 mps 742 mmHg 50%
    23:00 +9°C° 0 mm 5 mps 742 mmHg 51%

    27 September, Thursday

    Time Temperature Precipitation Wind Pressure Humidity
    00:00 +8°C° 0 mm 5 mps 742 mmHg 51%
    01:00 +8°C° 0 mm 5 mps 741 mmHg 51%
    02:00 +8°C° 0 mm 5 mps 741 mmHg 51%
    03:00 +8°C° 0 mm 5 mps 741 mmHg 51%
    04:00 +8°C° 0 mm 5 mps 741 mmHg 51%
    05:00 +8°C° 0 mm 5 mps 741 mmHg 50%
    06:00 +9°C° 0 mm 5 mps 741 mmHg 49%
    07:00 +9°C° 0 mm 5 mps 741 mmHg 49%
    08:00 +12°C° 0 mm 5 mps 741 mmHg 47%
    09:00 +14°C° 0 mm 5 mps 740 mmHg 44%
    10:00 +16°C° 0 mm 5 mps 740 mmHg 42%
    11:00 +17°C° 0 mm 5 mps 740 mmHg 43%
    12:00 +19°C° 0 mm 5 mps 740 mmHg 44%
    13:00 +20°C° 0 mm 5 mps 740 mmHg 45%
    14:00 +20°C° 0 mm 5 mps 739 mmHg 48%
    15:00 +20°C° 0 mm 5 mps 739 mmHg 50%
    16:00 +20°C° 0 mm 4 mps 739 mmHg 53%
    17:00 +18°C° 0 mm 4 mps 739 mmHg 58%
    18:00 +17°C° 0 mm 3 mps 739 mmHg 63%
    19:00 +14°C° 0 mm 3 mps 739 mmHg 69%
    20:00 +15°C° 0 mm 2 mps 738 mmHg 70%
    21:00 +14°C° 0 mm 2 mps 738 mmHg 71%
    22:00 +14°C° 0 mm 2 mps 738 mmHg 73%
    23:00 +14°C° 0 mm 2 mps 738 mmHg 73%

    28 September, Friday

    Time Temperature Precipitation Wind Pressure Humidity
    00:00 +13°C° 0 mm 2 mps 737 mmHg 72%
    01:00 +13°C° 0 mm 2 mps 737 mmHg 72%
    02:00 +13°C° 0 mm 2 mps 736 mmHg 72%
    03:00 +13°C° 0 mm 2 mps 736 mmHg 72%
    04:00 +12°C° 0 mm 2 mps 736 mmHg 71%
    05:00 +13°C° 0 mm 2 mps 735 mmHg 70%
    06:00 +12°C° 0 mm 3 mps 735 mmHg 68%
    07:00 +12°C° 0 mm 3 mps 735 mmHg 66%
    08:00 +14°C° 0 mm 3 mps 735 mmHg 59%
    09:00 +17°C° 0 mm 3 mps 735 mmHg 52%
    10:00 +19°C° 0 mm 4 mps 735 mmHg 45%
    11:00 +20°C° 0 mm 4 mps 735 mmHg 42%
    12:00 +21°C° 0 mm 4 mps 735 mmHg 40%
    13:00 +22°C° 0 mm 4 mps 734 mmHg 37%
    14:00 +21°C° 0 mm 4 mps 734 mmHg 39%
    15:00 +21°C° 0 mm 3 mps 734 mmHg 42%
    16:00 +20°C° 0 mm 3 mps 733 mmHg 44%
    17:00 +18°C° 0 mm 3 mps 733 mmHg 51%
    18:00 +17°C° 0 mm 2 mps 733 mmHg 58%
    19:00 +15°C° 0 mm 2 mps 733 mmHg 65%
    20:00 +14°C° 0 mm 2 mps 734 mmHg 69%
    21:00 +14°C° 0 mm 2 mps 734 mmHg 73%
    22:00 +13°C° 0 mm 2 mps 734 mmHg 77%
    23:00 +13°C° 0.1 mm 2 mps 734 mmHg 78%

    29 September, Saturday

    Time Temperature Precipitation Wind Pressure Humidity
    00:00 +13°C° 0.1 mm 2 mps 734 mmHg 79%
    01:00 +13°C° 0.1 mm 2 mps 734 mmHg 80%
    02:00 +12°C° 0.7 mm 2 mps 734 mmHg 83%
    03:00 +11°C° 0.7 mm 3 mps 734 mmHg 85%
    04:00 +10°C° 0.7 mm 3 mps 734 mmHg 88%
    05:00 +10°C° 0.5 mm 3 mps 735 mmHg 88%
    06:00 +9°C° 0.5 mm 3 mps 735 mmHg 88%
    07:00 +9°C° 0.5 mm 3 mps 736 mmHg 88%
    08:00 +10°C° 0 mm 3 mps 736 mmHg 80%
    09:00 +11°C° 0 mm 3 mps 737 mmHg 73%
    10:00 +12°C° 0 mm 4 mps 737 mmHg 65%
    11:00 +12°C° 0 mm 3 mps 737 mmHg 60%
    12:00 +13°C° 0 mm 3 mps 737 mmHg 55%
    13:00 +13°C° 0 mm 3 mps 737 mmHg 50%
    14:00 +13°C° 0 mm 3 mps 738 mmHg 49%
    15:00 +12°C° 0 mm 3 mps 738 mmHg 49%
    16:00 +12°C° 0 mm 3 mps 738 mmHg 48%
    17:00 +11°C° 0 mm 3 mps 738 mmHg 51%
    18:00 +10°C° 0 mm 3 mps 738 mmHg 54%
    19:00 +9°C° 0 mm 2 mps 739 mmHg 56%
    20:00 +8°C° 0 mm 2 mps 739 mmHg 57%
    21:00 +8°C° 0 mm 2 mps 739 mmHg 58%
    22:00 +7°C° 0 mm 2 mps 739 mmHg 59%
    23:00 +6°C° 0 mm 2 mps 739 mmHg 60%
    Show more